Waarnemingen

Advertentie
Mijn weer
Tortosa, Spanje (8238): temperatuur & dauwpunt: 17.07.2019 13:00:00 - 23.07.2019 13:00:00 (CEST)Tortosa, Spanje (8238): windsnelheid: 17.07.2019 13:00:00 - 23.07.2019 13:00:00 (CEST)Tortosa, Spanje (8238): windrichting: 17.07.2019 13:00:00 - 23.07.2019 13:00:00 (CEST)Tortosa, Spanje (8238): luchtdruk: 17.07.2019 13:00:00 - 23.07.2019 13:00:00 (CEST)Tortosa, Spanje (8238): zicht: 17.07.2019 13:00:00 - 23.07.2019 13:00:00 (CEST)Tortosa, Spanje (8238): neerslag: 17.07.2019 13:00:00 - 23.07.2019 13:00:00 (CEST)
Datum & Tijd tt [°C] td [°C] ff [km/u] ff [kn] dd ppp [hPa] vv [km] rr [mm]
23.07.2019 13:00:00 35,8 15,5 15 8 ZO 1017,4 20 0,0
23.07.2019 12:00:00 34,9 15,8 9 5 ZO 1017,6 20 0,0
23.07.2019 11:00:00 32,2 16,5 9 5 Z 1017,8 12 -
23.07.2019 10:00:00 29,6 16,4 5 3 Z 1018,1 20 0,0
23.07.2019 09:00:00 25,7 14,8 2 1 O 1018,2 20 0,0
23.07.2019 08:00:00 21,8 14,9 4 2 ZZW 1018,1 12 -
23.07.2019 07:00:00 21,1 14,5 2 1 O 1018,0 20 0,0
23.07.2019 06:00:00 21,6 14,3 4 2 Z 1018,0 20 0,0
23.07.2019 05:00:00 22,4 13,7 2 1 Z 1018,2 20 -
23.07.2019 04:00:00 22,9 13,7 4 2 N 1018,7 19 0,0
23.07.2019 03:00:00 23,5 13,9 5 3 N 1019,2 12 0,0
23.07.2019 02:00:00 25,1 14,2 4 2 NW 1019,5 20 -
23.07.2019 01:00:00 26,1 14,2 5 3 WZW 1019,8 20 0,0
23.07.2019 00:00:00 26,8 14,2 5 3 ZZO 1019,7 20 0,0
22.07.2019 23:00:00 27,7 15,7 11 6 ZO 1019,7 20 -
22.07.2019 22:00:00 28,5 15,8 9 5 ZO 1019,4 20 0,0
22.07.2019 21:00:00 30,3 16,3 11 6 ZO 1019,1 20 0,0
22.07.2019 20:00:00 33,1 16,0 13 7 ZZO 1018,8 12 -
22.07.2019 19:00:00 34,5 15,9 15 8 ZO 1019,0 20 0,0
22.07.2019 18:00:00 35,8 15,5 18 10 ZZO 1019,2 20 0,0
22.07.2019 17:00:00 35,9 15,6 15 8 ZO 1019,7 12 -
22.07.2019 16:00:00 34,4 14,3 21 11 OZO 1020,0 20 0,0
22.07.2019 15:00:00 34,9 16,7 18 10 OZO 1020,2 20 0,0
22.07.2019 14:00:00 36,1 18,2 15 8 ZO 1020,3 12 -
22.07.2019 13:00:00 34,7 20,3 13 7 OZO 1020,8 20 0,0
22.07.2019 12:00:00 32,6 20,8 9 5 ZO 1021,2 20 0,0
22.07.2019 11:00:00 30,3 21,1 8 4 ZZO 1021,6 10 -
22.07.2019 10:00:00 28,4 22,2 8 4 Z 1021,8 20 0,0
22.07.2019 09:00:00 25,0 21,7 2 1 Z 1021,8 17 0,0
22.07.2019 08:00:00 23,3 21,2 2 1 NO 1021,7 7 -
22.07.2019 07:00:00 22,7 21,3 5 3 N 1021,5 12 0,0
22.07.2019 06:00:00 23,4 21,8 0 0 N 1021,4 13 0,0
22.07.2019 05:00:00 23,6 21,9 4 2 NNO 1021,5 17 -
22.07.2019 04:00:00 23,6 22,0 4 2 WZW 1021,5 15 0,0
22.07.2019 03:00:00 23,8 22,1 8 4 ZW 1021,3 16 0,0
22.07.2019 02:00:00 24,1 22,0 11 6 ZW 1021,4 18 -
22.07.2019 01:00:00 24,7 21,8 8 4 Z 1021,5 20 0,0
22.07.2019 00:00:00 25,3 21,8 9 5 ZZO 1021,3 20 0,0
21.07.2019 23:00:00 25,9 21,6 11 6 Z 1021,1 20 -
21.07.2019 22:00:00 26,5 21,0 11 6 ZZO 1020,1 20 0,0
21.07.2019 21:00:00 28,0 20,3 11 6 ZO 1019,6 20 0,0
21.07.2019 20:00:00 30,0 19,1 16 9 ZZO 1019,4 12 -
21.07.2019 19:00:00 32,5 17,5 16 9 ZZO 1018,9 20 0,0
21.07.2019 18:00:00 33,4 16,3 15 8 ZO 1019,2 20 0,0
21.07.2019 17:00:00 34,6 17,3 16 9 ZO 1019,6 12 -
21.07.2019 16:00:00 35,2 17,0 13 7 ZZO 1020,1 20 0,0
21.07.2019 15:00:00 35,0 17,7 15 8 ZZO 1020,4 20 0,0
21.07.2019 14:00:00 33,9 17,2 11 6 OZO 1020,8 12 -
21.07.2019 13:00:00 33,9 20,3 13 7 Z 1020,9 20 0,0
21.07.2019 12:00:00 32,3 18,9 11 6 ZO 1020,8 20 0,0
21.07.2019 11:00:00 30,9 19,9 11 6 Z 1020,5 10 -
21.07.2019 10:00:00 29,1 20,3 5 3 ZZO 1020,6 20 0,0
21.07.2019 09:00:00 27,1 22,1 4 2 Z 1020,3 20 0,0
21.07.2019 08:00:00 24,5 22,4 2 1 ZO 1019,8 8 -
21.07.2019 07:00:00 23,4 21,8 4 2 Z 1019,3 13 0,0
21.07.2019 06:00:00 23,8 22,1 4 2 WZW 1018,8 16 0,0
21.07.2019 05:00:00 24,1 22,5 9 5 WZW 1018,8 14 -
21.07.2019 04:00:00 24,3 22,2 8 4 ZZO 1018,6 20 0,0
21.07.2019 03:00:00 24,7 22,2 11 6 Z 1018,4 20 0,0
21.07.2019 02:00:00 25,0 22,1 15 8 ZO 1018,4 20 -
21.07.2019 01:00:00 25,2 21,5 13 7 ZO 1018,3 20 0,0
21.07.2019 00:00:00 25,5 21,0 15 8 ZZO 1018,1 19 0,0
20.07.2019 23:00:00 25,8 20,4 15 8 ZO 1017,4 19 -
20.07.2019 22:00:00 26,6 20,2 9 5 ZZO 1016,7 20 0,0
20.07.2019 21:00:00 28,0 18,1 15 8 ZZO 1016,2 20 0,0
20.07.2019 20:00:00 29,5 16,7 16 9 ZZO 1015,7 10 -
20.07.2019 19:00:00 30,2 18,3 18 10 ZO 1015,6 20 0,0
20.07.2019 18:00:00 31,3 18,6 21 11 ZO 1015,4 20 0,0
20.07.2019 17:00:00 31,5 19,2 21 11 OZO 1015,4 12 -
20.07.2019 16:00:00 31,9 19,5 22 12 ZO 1015,6 20 0,0
20.07.2019 15:00:00 33,5 18,0 21 11 ZO 1015,8 20 0,0
20.07.2019 14:00:00 31,7 21,2 18 10 OZO 1015,5 12 -
20.07.2019 13:00:00 31,9 21,7 16 9 OZO 1015,3 20 0,0
20.07.2019 12:00:00 32,1 21,0 13 7 ZO 1015,4 20 0,0
20.07.2019 11:00:00 31,3 20,0 11 6 Z 1015,3 12 -
20.07.2019 10:00:00 28,9 20,1 5 3 Z 1015,3 20 0,0
20.07.2019 09:00:00 26,5 21,0 8 4 ZZO 1015,4 20 0,0
20.07.2019 08:00:00 23,4 19,8 9 5 ZZO 1015,3 9 -
20.07.2019 07:00:00 21,8 19,4 9 5 ZZO 1014,9 18 0,0
20.07.2019 06:00:00 22,0 19,4 11 6 ZZO 1014,6 19 0,0
20.07.2019 05:00:00 22,6 19,9 13 7 ZZO 1014,4 20 -
20.07.2019 04:00:00 22,8 19,8 13 7 ZZO 1014,3 20 0,0
20.07.2019 03:00:00 23,5 20,4 11 6 Z 1014,5 20 0,0
20.07.2019 02:00:00 24,0 21,1 11 6 ZZO 1014,6 20 -
20.07.2019 01:00:00 24,2 20,5 13 7 ZO 1014,8 20 0,0
20.07.2019 00:00:00 24,6 20,5 13 7 ZZO 1014,9 20 0,0
19.07.2019 23:00:00 25,2 20,2 11 6 ZZO 1015,0 20 -
19.07.2019 22:00:00 25,8 20,1 13 7 ZZO 1014,6 20 0,0
19.07.2019 21:00:00 26,8 19,7 15 8 ZO 1014,4 20 0,0
19.07.2019 20:00:00 27,9 18,3 16 9 ZO 1014,1 12 -
19.07.2019 19:00:00 29,2 17,4 21 11 ZO 1014,2 20 0,0
19.07.2019 18:00:00 31,1 16,3 18 10 ZO 1014,1 20 0,0
19.07.2019 17:00:00 31,0 16,6 21 11 OZO 1014,5 15 -
19.07.2019 16:00:00 31,8 17,7 21 11 ZO 1015,0 20 0,0
19.07.2019 15:00:00 33,7 18,6 16 9 ZZO 1015,5 20 0,0
19.07.2019 14:00:00 32,5 18,7 21 11 ZO 1015,9 8 -
19.07.2019 13:00:00 32,0 20,6 18 10 ZO 1016,2 20 0,0
19.07.2019 12:00:00 31,9 19,2 13 7 ZZO 1016,3 20 0,0
19.07.2019 11:00:00 30,4 20,6 5 3 Z 1016,4 10 -
19.07.2019 10:00:00 28,2 20,7 4 2 Z 1016,7 20 0,0
19.07.2019 09:00:00 26,4 19,3 2 1 NW 1016,6 18 0,0
19.07.2019 08:00:00 23,5 18,6 5 3 NNW 1016,4 8 -
19.07.2019 07:00:00 21,8 18,2 8 4 N 1016,2 14 0,0
19.07.2019 06:00:00 21,7 17,9 8 4 NNW 1016,0 20 0,0
19.07.2019 05:00:00 22,4 18,4 4 2 NNO 1016,0 13 -
19.07.2019 04:00:00 23,2 18,3 2 1 W 1015,9 15 0,0
19.07.2019 03:00:00 23,4 18,3 2 1 ONO 1016,0 8 0,0
19.07.2019 02:00:00 24,5 18,7 4 2 ZZO 1015,8 14 -
19.07.2019 01:00:00 24,9 18,3 4 2 ZZO 1015,7 20 0,0
19.07.2019 00:00:00 25,4 19,1 5 3 OZO 1015,2 20 0,0
18.07.2019 23:00:00 26,0 18,9 8 4 ZO 1014,7 20 -
18.07.2019 22:00:00 27,1 18,7 13 7 ZZO 1014,1 20 0,0
18.07.2019 21:00:00 28,8 18,3 13 7 ZZO 1013,5 20 0,0
18.07.2019 20:00:00 31,0 18,4 15 8 Z 1013,1 12 -
18.07.2019 19:00:00 33,0 18,4 16 9 Z 1012,9 15 0,0
18.07.2019 18:00:00 33,6 18,5 22 12 ZZW 1013,2 20 0,0
18.07.2019 17:00:00 35,4 17,1 15 8 ZZW 1013,2 12 -
18.07.2019 16:00:00 35,0 17,3 13 7 ZO 1013,6 20 0,0
18.07.2019 15:00:00 35,3 16,6 13 7 ZZO 1014,0 20 0,0
18.07.2019 14:00:00 34,1 14,6 9 5 ZO 1014,2 12 -
18.07.2019 13:00:00 34,1 14,1 - - - 1014,6 20 0,0
18.07.2019 12:00:00 33,0 14,6 15 8 NNO 1014,8 20 0,0
18.07.2019 11:00:00 31,1 15,5 13 7 NNO 1014,8 12 -
18.07.2019 10:00:00 28,2 14,8 8 4 NW 1015,2 20 0,0
18.07.2019 09:00:00 26,0 14,5 21 11 WNW 1015,1 20 0,0
18.07.2019 08:00:00 24,2 15,1 9 5 NNW 1015,0 12 -
18.07.2019 07:00:00 22,3 15,6 8 4 N 1014,6 20 0,0
18.07.2019 06:00:00 22,4 15,7 9 5 N 1014,3 20 0,0
18.07.2019 05:00:00 22,7 19,5 5 3 NNW 1014,2 20 -
18.07.2019 04:00:00 22,7 19,7 5 3 N 1014,1 20 0,0
18.07.2019 03:00:00 23,2 19,8 5 3 N 1014,6 20 0,0
18.07.2019 02:00:00 23,7 19,8 4 2 Z 1014,8 20 -
18.07.2019 01:00:00 24,3 20,2 5 3 WZW 1015,1 20 0,0
18.07.2019 00:00:00 24,8 19,8 8 4 ZZO 1014,7 20 0,0
17.07.2019 23:00:00 25,4 19,8 8 4 ZO 1014,6 20 -
17.07.2019 22:00:00 26,0 19,2 11 6 ZO 1013,7 20 0,0
17.07.2019 21:00:00 27,1 17,6 11 6 OZO 1013,1 20 0,0
17.07.2019 20:00:00 29,4 15,1 11 6 ZO 1011,6 10 -
17.07.2019 19:00:00 30,6 17,0 11 6 ZO 1011,7 20 0,0
17.07.2019 18:00:00 31,1 17,0 13 7 ZZO 1011,8 20 0,0
17.07.2019 17:00:00 30,4 18,2 15 8 ZZO 1012,1 10 -
17.07.2019 16:00:00 34,1 19,4 18 10 ZZO 1012,2 20 0,0
17.07.2019 15:00:00 33,1 18,8 18 10 ZO 1012,4 20 0,0
17.07.2019 14:00:00 33,4 19,1 16 9 ZO 1013,0 10 -
17.07.2019 13:00:00 33,0 18,8 13 7 ZO 1013,6 20 0,0

tt = temperatuur
td = dauwpunt
ff = windsnelheid
dd = windrichting
ppp = luchtdruk
vv = zicht
rr = neerslag

Weerstations in de omgeving